Date,TemperatureHighF,TemperatureAvgF,TemperatureLowF,DewpointHighF,DewpointAvgF,DewpointLowF,HumidityHigh,HumidityAvg,HumidityLow,PressureMaxIn,PressureMinIn,WindSpeedMaxMPH,WindSpeedAvgMPH,GustSpeedMaxMPH,PrecipitationSumIn
2013-1-1,33.1,20.6,12.4,20.8,12.2,5.6,87,70,57,30.22,30.08,5,0,5,0.01
2013-1-2,43.6,20.2,13.1,29.3,14.0,6.9,83,77,57,30.17,30.03,3,0,3,0.07
2013-1-3,45.9,29.4,22.3,29.6,22.1,16.0,87,75,52,30.32,30.16,4,0,4,0.04
2013-1-4,51.3,31.2,19.3,34.3,23.2,15.1,86,73,51,30.31,30.15,3,1,3,0.00
2013-1-5,49.1,36.3,29.2,37.3,28.6,22.2,79,74,60,30.15,29.98,4,1,4,0.00
2013-1-6,59.4,32.9,22.9,33.7,22.3,17.7,81,67,37,30.30,30.10,5,1,5,0.00
2013-1-7,50.4,37.3,28.6,29.4,25.2,21.1,73,62,44,30.20,29.97,5,2,5,0.00
2013-1-8,59.4,43.2,34.2,37.5,31.4,26.4,77,64,42,30.09,29.89,4,2,4,0.00
2013-1-9,61.6,41.2,27.9,42.1,31.0,22.8,83,68,47,30.33,30.12,2,0,2,0.00
2013-1-10,49.3,46.3,42.1,47.4,43.2,30.2,94,89,57,30.24,29.64,4,0,4,0.45
2013-1-11,57.1,52.8,48.2,48.6,47.2,35.5,94,82,50,29.66,29.49,6,0,6,0.00
2013-1-12,54.7,30.3,22.0,33.2,18.9,12.2,77,63,38,30.01,29.66,10,2,10,0.00
2013-1-13,35.3,20.1,13.0,14.6,8.5,5.5,74,61,39,30.23,29.94,8,2,8,0.00
2013-1-14,48.4,23.5,11.2,23.2,9.2,3.5,72,56,30,30.32,30.07,6,0,6,0.00
2013-1-15,46.8,24.8,14.2,22.5,11.7,6.2,77,59,33,30.27,30.05,4,0,4,0.00
2013-1-16,57.1,32.7,19.4,32.5,19.9,9.7,74,60,38,30.08,29.91,5,1,5,0.00
2013-1-17,62.3,38.8,28.1,37.3,28.1,23.2,87,68,38,30.36,29.88,7,1,7,0.00
2013-1-18,60.8,44.1,32.6,34.9,30.2,26.0,78,60,37,30.29,29.93,6,3,6,0.00
2013-1-19,67.3,49.4,40.0,35.6,30.7,25.8,70,51,26,30.15,29.88,5,2,5,0.00
2013-1-20,41.0,30.1,21.8,28.2,13.5,8.5,65,50,38,30.29,30.15,10,2,10,0.00
2013-1-21,22.9,18.9,14.9,11.6,6.6,2.6,74,59,43,30.34,30.25,7,1,7,0.00
2013-1-22,40.0,23.4,14.8,16.1,8.5,3.3,64,54,36,30.30,30.15,4,1,4,0.00
2013-1-23,56.5,32.1,16.2,29.2,17.2,7.1,69,55,33,30.30,30.07,8,2,8,0.00
2013-1-24,29.2,22.0,11.7,14.7,8.0,1.5,67,55,43,30.38,30.07,6,2,6,0.00
2013-1-25,57.1,34.2,20.2,26.6,16.8,9.2,64,50,31,30.19,30.05,3,1,3,0.00
2013-1-26,65.3,48.0,29.3,33.2,26.6,17.7,67,45,27,30.22,30.03,8,2,8,0.00
2013-1-27,58.7,47.4,40.5,53.8,41.6,26.5,88,80,48,30.04,29.70,8,2,8,0.07
2013-1-28,76.7,64.6,57.6,60.5,57.1,53.7,88,77,56,29.82,29.63,8,2,8,0.00
2013-1-29,66.1,47.7,35.6,60.9,44.7,34.0,94,90,82,29.62,29.43,4,1,4,1.36
2013-1-30,36.0,27.3,22.0,34.4,23.0,16.1,94,84,75,29.92,29.47,0,0,0,0.01
2013-1-31,24.1,18.1,8.5,20.3,10.5,1.5,85,72,53,30.41,29.89,0,0,0,0.00
2013-2-1,26.5,18.3,7.0,17.6,10.4,1.3,78,71,63,30.40,30.08,0,0,0,0.00
2013-2-2,54.2,37.0,25.4,36.4,26.9,17.1,76,67,49,30.17,30.04,1,0,1,0.01
2013-2-3,56.0,41.1,31.7,30.9,27.2,21.2,76,59,36,30.23,29.81,0,0,0,0.00
2013-2-4,49.7,39.7,24.8,32.1,27.2,18.4,76,61,49,29.94,29.73,2,0,2,0.00
2013-2-5,63.9,39.8,24.7,37.0,27.4,18.8,85,64,35,30.05,29.85,2,0,2,0.00
2013-2-6,67.5,48.8,34.6,42.9,35.0,24.7,73,60,40,30.05,29.84,4,2,4,0.00
2013-2-7,51.1,43.2,32.0,45.2,38.5,27.5,93,84,64,30.15,29.81,2,0,2,0.83
2013-2-8,53.3,35.9,30.2,40.1,29.0,25.8,85,77,53,30.28,30.15,0,0,0,0.00
2013-2-9,52.0,37.6,29.9,39.3,31.8,26.2,89,80,60,30.16,29.71,0,0,0,0.04
2013-2-10,55.3,44.4,36.9,45.5,34.8,24.8,94,71,46,29.87,29.44,10,0,10,0.04
2013-2-11,53.6,38.5,30.2,31.0,24.5,19.4,75,58,35,30.11,29.87,4,0,4,0.00
2013-2-12,43.0,33.9,24.7,30.6,24.3,17.2,79,68,57,30.12,29.90,1,0,1,0.00
2013-2-13,64.1,45.5,30.8,33.9,26.6,23.0,74,50,30,29.91,29.76,6,0,6,0.00
2013-2-14,49.1,40.9,32.6,32.5,27.0,23.6,73,58,41,30.12,29.79,7,2,7,0.00
2013-2-15,42.5,30.5,20.9,25.8,16.4,11.4,82,58,32,30.32,30.12,7,2,7,0.00
2013-2-16,35.1,28.8,17.6,25.6,20.4,12.2,84,71,58,30.25,30.01,3,1,3,0.03
2013-2-17,63.7,44.7,28.3,37.8,29.2,20.1,74,56,37,30.01,29.63,4,1,4,0.00
2013-2-18,53.1,43.0,27.9,45.4,31.9,17.3,81,66,48,30.04,29.49,8,3,8,0.02
2013-2-19,40.1,27.6,21.4,17.3,11.0,4.1,76,52,26,30.29,30.04,6,2,6,0.00
2013-2-20,26.3,22.1,17.5,14.1,8.5,3.2,66,55,49,30.32,30.11,5,2,5,0.00
2013-2-21,26.8,24.0,20.9,24.0,19.2,13.7,89,82,65,30.12,29.70,8,3,8,0.00
2013-2-22,34.2,24.1,16.6,23.2,18.4,11.2,89,79,63,30.02,29.72,5,1,5,0.11
2013-2-23,44.3,23.5,8.1,28.2,15.5,3.2,84,72,52,30.02,29.89,2,0,2,0.12
2013-2-24,51.1,34.5,20.5,33.5,24.7,15.0,82,68,49,29.96,29.85,3,1,3,0.00
2013-2-25,36.4,33.4,29.9,32.0,27.2,23.2,92,78,69,29.91,29.62,7,2,7,0.04
2013-2-26,34.2,32.3,30.6,31.2,30.2,28.6,94,92,89,29.80,29.53,6,1,6,0.12
2013-2-27,35.5,32.8,29.9,28.6,27.3,25.4,93,80,72,29.99,29.79,4,1,4,0.02
2013-2-28,32.8,30.5,28.4,27.5,25.5,24.0,84,81,78,30.14,29.99,4,1,4,0.00
2013-3-1,31.3,27.3,22.7,24.9,22.1,18.0,84,81,76,30.25,30.12,2,1,2,0.01
2013-3-2,45.5,28.9,22.1,31.1,20.7,17.4,85,72,49,30.29,30.12,2,0,2,0.15
2013-3-3,42.5,33.9,25.6,31.5,25.8,20.0,80,72,64,30.12,29.76,6,1,6,0.06
2013-3-6,33.1,29.7,27.2,21.9,20.9,19.8,74,69,63,30.24,30.22,0,0,0,0.00
2013-3-7,51.3,36.9,24.8,34.3,26.7,19.0,79,67,51,30.22,30.07,0,0,0,0.00
2013-3-8,56.0,46.2,37.1,42.8,36.3,28.8,76,68,59,30.14,29.93,4,1,4,0.00
2013-3-9,56.2,51.4,45.9,53.1,46.0,39.2,93,82,71,29.93,29.57,4,1,4,0.49
2013-3-10,53.6,43.3,31.5,51.3,41.1,29.0,94,92,88,29.75,29.51,2,0,2,0.01
2013-3-11,37.3,30.8,25.4,24.7,22.8,21.1,86,73,57,29.97,29.87,0,0,0,0.00
2013-3-12,50.0,36.5,28.6,30.1,24.5,22.0,80,63,37,30.28,29.96,0,0,0,0.00
2013-3-13,48.6,34.6,23.8,29.7,23.2,17.7,79,64,47,30.42,30.25,2,0,2,0.00
2013-3-14,74.3,57.4,35.6,44.7,37.2,24.9,65,49,34,30.25,30.00,4,0,4,0.00
2013-3-15,85.1,59.7,40.0,52.9,42.7,32.1,77,56,31,30.04,29.62,4,1,4,0.00
2013-3-16,61.0,44.1,37.4,44.7,34.7,27.6,83,70,55,30.01,29.65,9,4,9,0.00
2013-3-17,37.4,34.2,32.8,31.2,28.7,25.8,89,81,69,30.01,29.71,5,2,5,0.09
2013-3-18,54.0,41.5,34.2,35.7,29.0,18.9,93,66,32,30.01,29.70,6,2,6,0.00
2013-3-19,38.9,33.2,27.5,34.2,25.1,16.7,86,72,53,30.20,30.01,2,0,2,0.08
2013-3-20,40.9,31.9,24.1,30.8,16.9,11.6,90,56,33,30.34,30.07,6,2,6,0.00
2013-3-21,29.2,27.5,24.1,25.7,20.4,12.8,87,75,56,30.07,29.86,4,2,4,0.00
2013-3-22,33.5,31.4,29.2,30.3,27.9,25.5,89,87,83,29.95,29.88,3,1,3,0.03
2013-3-23,36.4,33.7,32.4,30.4,29.2,28.4,87,84,75,29.97,29.89,4,1,4,0.01
2013-3-27,47.2,43.9,40.9,35.2,33.1,31.2,69,66,62,30.17,30.14,0,0,0,0.00
2013-3-28,68.0,50.6,36.0,47.2,38.3,29.8,79,64,46,30.16,30.07,2,0,2,0.00
2013-3-29,71.8,55.8,42.3,47.6,41.4,36.2,80,60,39,30.15,30.05,5,1,5,0.00
2013-3-30,66.1,57.0,50.8,56.6,49.7,44.6,87,77,65,30.03,29.81,5,1,5,0.07
2013-3-31,67.9,54.8,43.2,49.8,41.1,31.4,87,63,38,29.94,29.87,5,1,5,0.00
2013-4-1,50.8,41.5,32.9,32.9,24.2,18.4,76,52,34,30.23,29.94,12,3,12,0.00
2013-4-2,56.2,41.0,29.7,28.9,22.6,17.6,63,49,33,30.28,30.18,5,1,5,0.00
2013-4-3,52.2,42.6,32.4,29.0,24.8,20.9,66,50,39,30.30,30.17,4,1,4,0.00
2013-4-4,68.6,50.0,37.6,34.9,28.2,22.1,61,44,28,30.18,30.01,3,1,3,0.00
2013-4-5,44.6,43.2,42.1,29.6,29.2,28.8,60,58,54,30.06,30.05,0,0,0,0.00
2013-4-6,79.4,68.9,55.1,52.3,46.1,40.1,57,45,30,29.78,29.63,6,2,6,0.00
2013-4-7,70.6,58.6,45.7,53.9,46.3,37.3,87,65,48,29.83,29.62,4,1,4,0.29
2013-4-8,71.5,63.3,56.3,63.1,58.1,52.4,91,83,74,29.69,29.63,4,1,4,0.00
2013-4-9,72.0,66.3,58.5,63.3,59.8,53.6,87,80,74,29.73,29.60,5,2,5,0.02
2013-4-10,53.3,41.5,36.4,50.1,39.7,34.7,95,93,89,29.86,29.70,9,2,9,1.10
2013-4-11,40.7,37.4,34.2,34.7,30.2,27.6,94,76,68,29.77,29.67,5,2,5,0.00
2013-4-12,52.9,40.3,30.8,34.5,30.3,26.5,85,69,49,29.98,29.73,4,1,4,0.00
2013-4-13,64.6,49.1,32.6,47.2,38.9,28.0,86,69,51,30.01,29.66,8,1,8,0.00
2013-4-14,71.3,61.9,54.2,55.1,48.6,40.0,73,62,52,29.66,29.45,7,2,7,0.01
2013-4-15,55.6,48.5,44.6,42.2,36.9,32.6,81,65,49,29.94,29.70,0,0,0,0.17
2013-4-16,46.8,44.1,41.9,37.2,34.1,32.1,74,68,59,30.08,29.94,2,0,2,0.00
2013-4-17,52.2,48.3,45.0,50.2,45.0,37.2,94,89,74,30.01,29.59,2,0,2,0.42
2013-4-18,47.0,39.3,35.8,45.4,35.3,27.4,94,86,71,29.90,29.53,7,2,7,0.32
2013-4-19,52.9,41.3,31.5,29.1,26.6,23.9,79,58,34,30.05,29.86,5,1,5,0.00
2013-4-20,59.6,45.4,30.1,38.4,31.6,23.0,78,59,45,30.19,30.05,0,0,0,0.00
2013-4-21,66.2,56.0,47.2,47.0,40.5,33.9,71,57,44,30.17,30.05,3,0,3,0.00
2013-4-22,65.2,56.0,49.0,48.4,44.1,39.3,83,65,51,30.09,29.86,3,0,3,0.02
2013-4-23,47.7,36.5,33.7,43.8,33.5,31.3,92,89,82,30.12,29.97,4,1,4,0.54
2013-4-24,47.2,39.6,33.8,34.5,32.6,30.6,91,77,60,30.17,30.11,3,1,3,0.01
2013-4-25,72.0,53.2,34.7,46.7,38.6,29.2,82,60,37,30.25,30.09,3,0,3,0.00
2013-4-26,55.6,51.0,47.9,47.7,45.3,39.2,91,82,55,30.18,30.09,5,2,5,0.39
2013-4-27,54.2,50.3,47.0,49.4,47.1,44.7,94,89,84,30.15,29.96,3,1,3,0.55
2013-4-28,75.6,58.5,41.4,60.9,51.0,39.0,94,78,56,29.96,29.75,3,1,3,0.01
2013-4-29,84.4,69.7,58.0,66.4,59.0,51.8,83,70,53,29.78,29.60,4,1,4,0.00
2013-4-30,85.0,73.1,65.3,58.7,55.3,50.4,72,55,41,29.78,29.63,5,1,5,0.00
2013-5-1,84.8,66.5,41.8,63.6,53.0,38.2,87,63,46,30.13,29.78,4,0,4,0.21
2013-5-2,41.8,37.1,32.8,38.3,34.5,30.7,93,90,87,30.33,30.12,4,0,4,0.57
2013-5-3,39.2,36.9,34.2,35.3,33.8,32.0,92,89,80,30.25,29.86,5,1,5,0.38
2013-5-4,48.1,41.0,32.9,43.6,38.0,30.9,94,89,81,29.98,29.79,4,1,4,0.18
2013-5-5,55.1,49.1,45.0,49.8,46.1,42.6,94,89,81,30.07,29.97,4,1,4,0.01
2013-5-6,67.3,56.1,49.3,58.0,50.8,46.5,92,83,69,30.07,29.98,5,0,5,0.00
2013-5-7,78.3,60.9,45.2,58.9,50.7,42.2,92,72,45,30.04,29.93,2,0,2,0.00
2013-5-8,76.3,64.2,56.3,62.1,55.7,49.7,87,75,60,29.97,29.85,4,1,4,0.08
2013-5-9,75.8,64.9,58.3,61.7,57.7,53.8,92,78,58,29.90,29.80,2,0,2,0.08
2013-5-10,66.4,58.2,52.4,54.0,51.4,45.7,89,79,59,30.00,29.88,0,0,0,0.00
2013-5-11,68.8,56.4,47.2,49.0,38.9,30.5,87,56,30,30.19,30.00,6,0,6,0.00
2013-5-12,70.2,53.6,36.9,41.5,34.9,28.8,77,52,30,30.23,30.09,0,0,0,0.00
2013-5-13,81.7,64.3,48.1,57.0,49.3,39.2,74,59,42,30.11,29.91,4,0,4,0.00
2013-5-14,93.1,76.2,62.6,57.7,54.0,49.1,73,50,26,29.89,29.76,4,0,4,0.00
2013-5-15,71.6,70.9,70.4,56.7,55.0,53.9,60,57,56,29.82,29.81,4,2,4,0.00
2013-5-17,77.0,70.8,63.9,65.7,61.7,57.2,87,74,63,29.90,29.84,0,0,0,0.00
2013-5-18,86.2,74.1,61.9,71.5,65.5,56.9,86,75,60,29.88,29.70,6,1,6,0.00
2013-5-19,80.6,69.8,62.6,70.4,63.8,58.4,91,82,70,29.81,29.54,8,2,8,0.27
2013-5-20,79.2,67.7,60.7,70.6,63.0,58.0,92,85,75,29.72,29.59,4,0,4,0.00
2013-5-21,77.9,66.0,55.6,61.8,53.5,50.1,87,66,45,29.74,29.65,3,0,3,0.00
2013-5-22,68.6,61.1,53.3,52.8,50.6,47.6,82,69,57,29.91,29.70,3,0,3,0.00
2013-5-23,70.7,61.0,52.2,57.4,51.7,46.7,83,72,60,30.17,29.91,0,0,0,0.00
2013-5-24,77.9,62.7,49.3,57.9,50.8,44.9,88,67,47,30.26,30.07,4,0,4,0.00
2013-5-25,84.2,71.0,61.4,68.1,59.1,48.2,76,66,55,30.10,29.95,7,2,7,0.00
2013-5-26,83.9,75.1,68.0,70.7,66.2,62.6,84,75,62,30.01,29.85,9,1,9,0.00
2013-5-27,77.4,70.5,62.1,71.1,64.8,59.5,92,82,75,29.89,29.64,7,1,7,2.27
2013-5-28,76.7,72.8,69.7,71.8,67.6,64.7,88,84,80,29.77,29.61,6,0,6,0.00
2013-5-29,78.5,73.0,65.7,69.4,66.5,61.4,88,80,70,29.78,29.60,8,3,8,0.01
2013-5-30,69.3,63.9,61.6,65.9,61.4,59.5,94,91,86,29.69,29.59,8,2,8,0.67
2013-5-31,74.5,66.2,58.7,69.8,63.1,56.3,95,90,80,29.71,29.63,3,0,3,1.25
2013-6-1,68.8,64.5,59.6,64.2,56.4,51.9,93,76,60,29.94,29.65,4,1,4,0.00
2013-6-2,65.2,58.4,51.5,53.0,50.4,46.2,82,75,62,30.04,29.93,0,0,0,0.00
2013-6-3,76.7,61.5,46.6,62.0,53.2,43.0,89,75,59,30.02,29.84,2,0,2,0.00
2013-6-4,73.4,65.5,61.6,67.3,60.1,55.6,90,83,76,29.92,29.82,7,1,7,0.01
2013-6-5,68.8,64.1,61.7,64.4,60.8,58.6,92,89,86,29.94,29.87,2,0,2,0.18
2013-6-6,75.8,66.1,57.6,60.5,56.7,53.1,91,73,52,29.93,29.87,3,0,3,0.00
2013-6-7,77.8,64.9,52.9,58.9,53.8,49.4,90,69,46,29.96,29.86,2,0,2,0.00
2013-6-8,81.2,67.9,56.7,65.0,57.7,50.8,83,71,55,29.90,29.72,9,1,9,0.00
2013-6-9,82.3,70.1,61.6,61.8,58.2,52.0,90,69,37,29.81,29.73,5,1,5,0.21
2013-6-10,92.0,72.5,58.5,66.6,59.7,53.6,86,66,38,29.86,29.78,5,0,5,0.00
2013-6-11,92.5,79.8,71.1,70.4,66.5,62.7,82,65,44,29.85,29.75,8,1,8,0.00
2013-6-12,78.1,76.7,76.1,68.5,68.4,68.3,77,76,72,29.79,29.77,6,2,6,0.00
2013-6-16,81.0,76.3,72.4,72.7,70.2,68.0,86,82,76,29.93,29.86,3,1,3,0.00
2013-6-17,81.7,72.1,66.4,71.8,66.7,62.7,91,84,69,29.96,29.86,7,0,7,0.04
2013-6-18,89.3,72.3,62.8,71.6,64.8,60.1,92,79,52,29.98,29.94,6,1,6,0.00
2013-6-19,86.4,74.5,63.7,74.0,66.2,60.5,90,76,57,30.00,29.90,8,2,8,0.00
2013-6-20,90.5,78.5,68.8,76.0,69.7,64.1,85,75,60,29.97,29.86,10,4,10,0.00
2013-6-21,91.8,81.6,74.2,76.0,71.8,67.7,85,73,60,29.94,29.87,8,5,8,0.00
2013-6-22,92.9,81.2,73.3,74.4,69.9,66.8,81,69,52,29.95,29.82,7,4,7,0.00
2013-6-23,87.7,80.0,73.4,75.9,70.4,67.7,83,73,61,29.91,29.76,8,4,8,0.00
2013-6-24,90.0,80.6,74.5,73.4,69.0,67.1,80,68,53,29.92,29.76,8,5,8,0.00
2013-6-25,87.1,79.1,73.4,74.7,69.7,67.1,87,73,63,29.86,29.69,8,4,8,0.03
2013-6-26,101.5,84.5,73.8,74.3,68.7,62.7,84,63,30,29.85,29.69,6,1,6,0.00
2013-6-27,87.1,77.4,71.3,76.6,68.1,63.6,82,73,66,29.97,29.80,6,0,6,0.01
2013-6-28,89.8,76.9,67.5,70.7,63.3,56.8,92,66,39,29.91,29.84,4,1,4,0.04
2013-6-29,84.8,73.4,62.8,60.0,56.7,54.3,76,58,36,29.85,29.78,7,2,7,0.00
2013-6-30,80.5,70.4,60.3,59.4,56.4,53.2,79,63,46,29.99,29.85,5,2,5,0.00
2013-7-1,84.2,71.1,59.8,57.2,53.5,51.5,76,56,33,30.07,29.99,7,2,7,0.00
2013-7-2,87.8,71.2,56.0,58.0,54.0,50.0,83,57,34,30.09,30.00,5,1,5,0.00
2013-7-3,90.7,69.9,59.8,58.5,55.0,52.6,79,62,30,30.04,29.95,5,1,5,0.19
2013-7-4,90.0,73.6,61.4,63.7,58.0,53.7,78,60,38,30.00,29.91,6,2,6,0.01
2013-7-5,92.9,77.7,65.7,66.3,60.9,56.3,74,58,40,29.96,29.86,7,3,7,0.00
2013-7-6,89.3,76.6,68.6,68.8,63.2,58.8,75,64,50,29.96,29.86,9,4,9,0.03
2013-7-7,92.7,80.5,72.5,70.2,66.2,63.4,74,62,47,29.94,29.88,8,4,8,0.00
2013-7-8,98.3,83.8,74.7,73.5,67.3,63.6,71,59,43,29.99,29.92,6,3,6,0.00
2013-7-9,101.5,86.4,76.0,75.6,70.6,66.5,75,61,42,29.97,29.81,11,4,11,0.00
2013-7-10,85.5,84.0,81.7,70.4,67.6,64.9,62,58,55,29.91,29.87,3,1,3,0.00
2013-7-11,81.5,77.3,74.0,58.2,57.7,57.2,57,51,45,29.97,29.95,0,0,0,0.00
2013-7-12,96.7,80.7,68.8,69.1,62.7,57.7,70,55,41,30.01,29.93,6,2,6,0.00
2013-7-13,95.8,80.2,69.8,70.7,62.7,56.5,63,56,43,30.00,29.92,6,2,6,0.00
2013-7-14,93.2,78.9,67.0,64.5,60.6,57.4,75,55,36,30.07,29.96,7,1,7,0.00
2013-7-15,94.5,80.1,69.8,70.6,65.3,58.7,79,62,45,30.14,30.05,3,1,3,0.00
2013-7-16,99.2,83.1,71.6,72.3,67.5,64.4,81,61,41,30.22,30.13,5,1,5,0.00
2013-7-17,94.9,83.7,73.6,71.8,68.9,65.8,78,62,47,30.28,30.15,4,2,4,0.00
2013-7-18,99.7,84.8,71.8,70.2,67.4,64.7,80,58,38,30.17,29.96,5,1,5,0.00
2013-7-19,101.9,86.4,73.1,68.4,65.6,63.2,73,52,31,29.97,29.82,2,1,2,0.00
2013-7-20,90.0,76.9,70.9,73.8,68.3,64.8,88,75,55,29.91,29.82,6,1,6,0.24
2013-7-21,89.3,77.2,69.7,72.9,68.4,65.9,89,76,55,29.89,29.77,6,1,6,0.00
2013-7-22,95.9,81.6,70.4,75.2,69.2,65.4,87,68,44,29.82,29.74,7,2,7,0.00
2013-7-23,87.5,79.0,72.0,71.5,68.3,62.5,85,70,56,29.90,29.78,4,1,4,0.00
2013-7-24,91.6,76.6,66.1,62.7,59.8,57.5,74,58,36,30.01,29.88,7,1,7,0.00
2013-7-25,86.0,74.4,66.8,66.2,62.7,58.0,81,68,48,30.05,29.97,4,1,4,0.02
2013-7-26,87.5,75.5,67.5,72.3,63.6,53.1,86,68,42,30.02,29.94,5,1,5,0.03
2013-7-27,83.2,67.9,56.2,56.5,52.6,49.6,82,60,37,30.07,29.94,4,1,4,0.00
2013-7-28,74.9,66.4,58.1,55.0,53.5,51.8,83,65,49,30.02,29.98,4,0,4,0.00
2013-7-29,69.5,65.6,60.8,67.3,60.9,54.6,93,85,68,30.04,29.92,2,0,2,0.67
2013-7-30,81.9,74.4,69.8,73.8,70.2,67.7,94,87,76,30.02,29.92,6,1,6,0.26
2013-7-31,88.9,76.6,70.0,70.3,67.5,64.0,91,75,53,30.08,30.00,4,1,4,0.00
2013-8-1,93.1,77.5,66.1,71.7,66.5,62.4,97,71,47,30.07,29.92,4,0,4,0.00
2013-8-2,91.8,76.2,65.7,76.0,69.3,62.8,92,80,60,29.94,29.81,5,1,5,0.58
2013-8-3,85.1,76.8,71.6,73.8,70.0,67.9,88,80,66,30.08,29.89,3,1,3,0.02
2013-8-4,75.1,70.6,66.4,69.8,66.0,61.7,93,86,75,30.10,29.99,3,1,3,0.81
2013-8-5,83.3,74.9,68.9,75.3,70.8,67.0,94,87,76,30.01,29.79,4,1,4,0.00
2013-8-6,88.2,77.7,69.1,77.3,72.5,66.9,94,84,67,29.85,29.76,7,2,7,0.35
2013-8-7,83.2,76.3,69.7,76.1,71.4,65.5,95,85,75,29.91,29.76,4,1,4,0.71
2013-8-8,72.4,70.1,67.9,66.9,64.9,63.2,87,84,80,29.97,29.84,4,1,4,0.02
2013-8-9,73.6,69.9,65.7,68.9,65.4,62.4,89,86,79,30.07,29.95,4,0,4,0.02
2013-8-10,87.1,72.6,62.5,70.1,63.5,60.0,93,75,53,30.15,30.04,2,0,2,0.00
2013-8-11,89.8,75.2,64.4,72.2,65.1,58.1,81,72,56,30.09,29.97,6,1,6,0.00
2013-8-12,85.9,74.2,66.2,73.6,67.4,63.5,94,80,64,30.00,29.92,4,1,4,0.79
2013-8-13,84.2,72.6,66.4,65.1,62.7,60.3,89,73,49,30.08,29.98,4,1,4,0.00
2013-8-14,77.2,69.5,64.8,60.8,58.3,55.5,81,68,57,30.08,30.05,3,0,3,0.00
2013-8-15,76.3,67.4,62.8,62.2,58.0,54.9,77,72,60,30.08,29.97,5,2,5,0.02
2013-8-16,90.0,69.7,61.4,89.6,59.1,54.7,99,71,49,30.12,30.03,5,0,5,0.00
2013-8-17,80.6,68.6,56.5,65.1,57.6,54.2,99,71,45,30.16,30.06,3,0,3,0.00
2013-8-18,86.4,70.3,57.2,66.2,59.9,53.9,92,71,49,30.12,30.02,4,1,4,0.00
2013-8-19,88.4,74.6,64.4,68.3,63.9,59.2,87,71,50,30.07,29.96,7,2,7,0.00
2013-8-20,92.0,77.5,67.9,70.0,65.6,61.8,84,68,48,30.03,29.95,7,3,7,0.00
2013-8-21,136.6,80.7,69.1,74.3,66.7,27.2,99,68,1,30.04,29.96,7,1,7,0.00
2013-8-22,90.5,79.1,70.9,71.6,69.3,67.1,88,73,54,30.06,29.97,4,2,4,0.00
2013-8-23,95.4,81.2,70.4,75.8,67.2,55.8,99,66,27,30.05,29.97,5,1,5,0.00
2013-8-24,95.0,83.2,75.2,94.7,72.7,64.6,99,74,41,30.10,30.00,8,3,8,0.00
2013-8-25,97.4,82.5,72.7,74.5,70.5,67.4,93,69,43,30.16,30.07,7,4,7,0.00
2013-8-26,97.9,82.8,73.1,72.3,69.8,67.3,91,67,40,30.13,30.02,5,3,5,0.00
2013-8-27,97.2,82.0,70.6,69.8,66.4,61.8,90,62,37,30.03,29.94,7,2,7,0.00
2013-8-28,99.2,81.5,69.1,71.3,67.3,64.4,90,65,38,30.02,29.95,4,1,4,0.00
2013-8-29,97.6,84.5,74.9,73.5,70.0,67.6,84,64,41,30.00,29.91,6,3,6,0.00
2013-8-30,104.9,87.0,74.5,71.6,68.6,64.6,83,58,30,29.93,29.79,5,2,5,0.00
2013-8-31,92.5,82.9,75.8,75.4,69.9,64.7,79,66,40,29.84,29.76,4,1,4,0.00
2013-9-1,87.7,76.0,67.3,75.2,68.5,62.6,99,79,58,29.92,29.73,3,0,3,0.01
2013-9-2,88.9,72.3,61.0,65.3,61.1,57.1,99,71,39,30.01,29.92,5,1,5,0.00
2013-9-3,92.9,71.9,56.9,62.6,58.3,54.1,99,67,34,30.07,29.98,4,0,4,0.00
2013-9-4,89.3,72.9,60.8,62.9,59.4,56.3,89,65,41,30.13,30.02,4,0,4,0.00
2013-9-5,93.6,75.3,62.3,66.0,61.6,58.8,92,65,39,30.16,30.06,2,0,2,0.00
2013-9-6,96.3,79.1,69.1,68.0,63.2,60.5,77,60,39,30.09,29.95,7,2,7,0.00
2013-9-7,99.9,82.6,70.6,70.4,65.8,61.7,77,59,36,29.96,29.85,6,3,6,0.00
2013-9-8,105.5,86.2,74.2,70.5,66.4,64.5,73,54,31,29.87,29.78,5,2,5,0.00
2013-9-9,99.7,84.2,75.2,66.9,62.8,58.6,67,51,30,29.91,29.84,4,2,4,0.00
2013-9-10,97.2,82.6,72.7,67.1,63.3,60.5,71,54,35,30.03,29.91,6,3,6,0.00
2013-9-11,100.8,81.5,68.9,64.6,60.9,57.0,76,53,29,30.09,29.98,4,1,4,0.00
2013-9-12,76.9,73.8,69.5,65.8,56.8,44.1,72,57,40,30.10,30.02,2,1,2,0.02
2013-9-13,82.1,68.4,58.1,51.7,45.9,42.8,69,46,29,30.14,30.01,4,1,4,0.00
2013-9-14,84.2,68.4,55.8,53.4,48.2,45.4,70,50,32,30.06,29.91,7,2,7,0.00
2013-9-15,91.4,72.5,65.2,67.2,58.4,49.2,84,62,43,30.09,29.89,7,3,7,0.02
2013-9-16,64.8,62.5,60.8,61.1,60.7,60.4,99,94,86,30.13,30.09,3,2,3,0.00
2013-9-18,88.4,81.4,73.3,82.8,74.6,69.4,99,82,57,29.91,29.78,7,5,7,0.00
2013-9-19,94.0,82.2,72.4,93.4,62.8,26.9,99,68,1,29.85,29.71,8,4,8,0.01
2013-9-20,78.1,67.6,62.3,77.9,47.7,9.9,99,63,1,30.02,29.92,2,1,2,0.00
2013-9-21,121.1,82.3,71.1,84.4,25.6,11.8,99,9,1,30.00,29.87,1,0,1,0.00
2013-9-22,130.7,115.4,98.3,56.8,45.4,32.5,1,1,1,29.90,29.84,7,2,7,0.00
2013-10-7,-39.2,-39.2,-39.2,-52.8,-52.8,-52.8,44,44,44,30.05,30.05,0,0,0,0.00
2013-10-8,94.7,12.7,-39.6,47.4,-5.0,-60.3,99,63,1,30.05,29.97,0,0,0,0.00
2013-10-9,-39.2,-39.2,-39.2,-39.4,-56.1,-77.5,99,46,8,30.05,29.97,0,0,0,0.00
2013-10-10,139.1,21.6,-39.6,80.6,-0.7,-64.2,99,61,1,30.01,29.87,0,0,0,0.01
2013-10-11,90.4,15.5,-39.2,90.0,8.7,-50.7,99,79,1,29.83,29.74,0,0,0,0.08
2013-10-12,117.9,-4.8,-39.2,47.3,-27.2,-71.4,99,53,1,30.11,29.84,0,0,0,0.00
2013-11-12,0.0,0.0,0.0,0.0,0.0,0.0,83,83,83,30.64,30.64,0,0,0,0.00